EHI
0 0 0 0 0 0 0 0 0 0 0 0 0 0 0 0 0 0 2 8 16 19 16 13 11 7 4 2 1 0 0 0 0 0 0 0 0 0 0 0 0 0 0
0 0 0 0 0 0 0 0 0 0 0 0 0 0 0 0 0 0 1 5 12 17 18 17 13 11 9 7 3 1 0 0 0 0 0 0 0 0 0 0 0 0 0
0 0 0 0 0 0 0 0 0 0 0 0 0 0 0 0 0 0 0 2 6 11 16 17 16 15 15 13 9 5 2 1 1 1 0 0 0 0 0 0 0 0 0
1 0 0 0 0 0 0 0 0 0 0 0 0 0 0 0 1 0 0 1 2 6 10 15 16 17 17 16 13 9 5 4 4 3 1 0 0 0 0 0 0 0 0
3 2 1 1 0 0 0 0 0 0 0 0 0 0 0 0 0 0 0 0 1 2 5 9 13 15 16 15 13 11 8 6 6 5 3 1 0 0 0 0 0 0 0
4 4 3 2 1 0 0 0 0 0 0 0 0 0 0 0 0 0 0 0 0 0 1 3 5 8 11 12 12 12 10 7 6 6 4 1 0 0 0 0 0 0 0
4 4 3 2 1 0 0 0 0 0 0 0 0 0 0 0 0 0 0 0 0 0 0 0 1 2 4 7 9 11 12 9 7 7 5 2 0 0 0 0 0 0 0
3 3 1 1 0 0 0 0 0 0 0 0 0 0 0 0 0 0 0 0 0 0 0 1 1 0 1 2 4 8 12 11 10 10 8 4 1 0 0 0 0 0 0
2 1 0 0 0 0 0 0 0 0 0 0 0 0 0 0 0 0 0 0 0 0 1 2 1 0 0 0 1 3 8 11 11 11 12 9 4 1 0 0 0 0 0
2 1 0 0 0 0 0 0 0 0 0 1 1 1 0 0 0 0 0 0 0 0 1 1 1 0 0 0 0 1 3 5 8 9 11 12 8 3 1 0 0 0 0
1 1 1 0 0 0 0 1 1 0 0 1 2 1 0 0 0 0 0 0 0 0 0 0 0 0 0 0 0 0 0 1 3 5 6 7 7 5 3 1 0 0 0
1 1 1 0 0 0 1 2 1 0 0 1 1 1 0 0 0 0 0 0 0 0 0 0 0 0 0 0 0 0 0 0 0 1 2 2 3 4 4 2 1 0 0
0 1 1 0 0 1 2 2 1 1 0 0 0 0 0 0 0 0 0 0 0 0 0 0 0 0 0 0 0 0 0 0 0 0 0 0 0 1 2 2 1 0 0
0 0 0 0 0 1 3 4 3 2 1 0 0 0 0 0 0 0 0 0 0 0 0 0 0 0 0 0 0 0 0 0 0 0 0 0 0 0 0 0 0 0 0
2 2 2 1 2 3 4 5 5 3 2 1 1 0 0 0 0 0 0 0 0 0 0 0 0 0 0 0 0 0 0 0 0 0 0 0 0 0 0 0 0 0 0
6 7 6 5 5 5 6 6 5 4 3 3 2 1 1 0 0 0 0 0 0 0 0 0 0 0 0 0 0 0 0 0 0 0 0 0 0 0 0 0 0 0 0
11 11 10 8 7 6 6 6 5 4 3 3 3 3 2 1 1 0 0 0 0 0 0 0 0 0 0 0 0 0 0 0 0 0 0 0 0 0 0 0 0 0 0
12 11 10 7 6 6 6 6 6 4 3 3 3 3 2 1 0 0 0 0 0 0 0 0 0 0 0 0 0 0 0 0 0 0 0 0 0 0 0 0 0 0 0
10 9 7 6 4 4 5 6 5 3 2 2 3 3 2 1 0 0 0 0 0 0 0 0 0 0 0 0 0 0 0 0 0 0 0 0 0 0 0 0 0 0 0
9 8 6 4 3 3 4 4 3 2 1 1 1 2 2 1 0 0 0 0 0 0 0 0 0 0 0 0 0 0 0 0 0 0 0 0 0 0 0 0 0 0 0
9 7 5 3 3 3 3 3 3 1 0 0 0 1 1 0 0 0 0 0 0 0 0 0 0 0 0 0 0 0 0 0 0 0 0 0 0 0 0 0 0 0 0
9 7 4 3 3 3 3 3 3 2 1 0 0 0 0 0 0 0 0 0 0 0 0 0 0 0 0 0 0 0 0 0 0 0 0 0 0 0 0 0 0 0 0
9 7 5 4 3 3 3 2 3 3 2 1 0 0 0 0 0 0 0 0 0 0 0 0 0 0 0 0 0 0 0 0 0 0 0 0 0 0 0 0 0 0 0
10 9 6 4 3 3 1 1 1 2 2 1 0 0 0 0 0 0 0 0 0 0 0 0 0 0 0 0 0 0 0 0 0 0 0 0 0 0 0 0 0 0 0
12 10 6 4 4 3 1 0 0 1 1 0 0 0 0 0 0 0 0 0 0 0 0 0 0 0 0 0 0 0 0 0 0 0 0 0 0 0 0 0 0 0 0
12 10 7 5 5 3 2 1 0 0 0 0 0 0 0 0 0 0 0 0 0 0 0 0 0 0 0 0 0 0 0 0 0 0 0 0 0 0 0 0 0 0 0
Wind_Speed
3 3 2 2 2 2 2 1 1 1 1 2 2 3 4 4 5 4 4 11 11 11 12 12 12 12 12 11 11 11 10 10 9 9 9 9 10 10 10 10 9 9 8
4 4 3 2 2 2 2 2 2 2 2 1 1 2 3 3 4 5 3 6 11 11 11 12 12 12 12 12 12 11 11 11 10 9 9 9 9 10 10 10 10 10 9
4 4 3 2 2 2 2 1 2 1 1 1 1 2 2 3 4 4 4 3 5 10 12 12 12 12 12 12 12 12 11 10 10 10 10 10 10 10 10 10 10 10 9
5 4 3 3 3 2 2 2 1 1 0 1 1 1 1 2 3 4 4 4 3 4 8 12 12 12 12 12 12 12 12 11 11 10 10 10 10 11 11 11 11 10 10
5 4 3 3 2 2 2 2 2 2 1 1 1 1 1 2 3 4 4 5 4 4 4 7 11 12 13 13 13 13 12 12 12 12 12 12 11 11 11 11 11 10 10
4 4 3 3 3 2 1 1 2 2 2 2 1 1 1 1 1 3 4 4 4 5 4 4 5 7 12 11 11 12 12 12 12 12 12 12 12 11 11 11 11 11 11
4 4 2 2 2 3 3 3 2 2 1 1 1 1 2 1 1 1 2 3 3 4 4 4 3 3 4 9 10 10 12 12 12 12 12 12 12 11 11 11 11 11 11
4 4 4 3 3 3 3 3 2 2 1 2 2 1 1 3 2 1 1 2 3 2 3 5 4 4 3 3 4 9 10 11 12 12 12 12 11 11 11 11 11 11 11
4 4 4 4 3 3 3 3 3 4 2 1 2 3 3 3 2 2 1 0 1 2 2 3 4 4 4 3 3 6 9 9 11 12 12 12 10 10 11 11 11 11 11
4 4 4 4 4 3 3 4 3 3 3 2 2 2 3 4 2 1 2 1 0 1 1 2 2 3 3 3 3 4 6 7 10 11 11 11 11 10 10 10 11 11 11
3 3 4 4 3 3 3 3 3 3 3 3 3 2 2 1 2 2 2 1 1 1 1 1 1 2 3 3 3 4 5 5 6 7 8 9 9 10 10 10 10 11 11
2 3 3 3 3 3 3 3 3 3 3 3 2 2 3 2 3 3 3 2 2 1 1 0 1 1 2 2 3 4 4 3 3 4 5 6 7 8 9 9 10 9 8
2 3 2 3 3 3 3 3 3 2 3 3 3 2 2 3 3 3 3 2 1 1 0 0 1 1 1 1 1 3 3 3 3 2 2 3 4 5 5 5 6 7 7
3 3 3 3 3 3 3 3 2 3 2 3 3 2 2 2 2 3 3 3 1 1 0 1 1 0 0 1 1 2 1 3 3 2 2 2 2 2 2 2 3 4 5
3 4 4 3 3 3 2 2 2 2 2 2 2 2 2 2 2 2 3 4 4 3 2 2 1 0 1 1 1 1 2 3 4 3 3 3 3 2 2 2 2 3 3
3 3 3 3 3 2 2 2 2 2 1 1 1 1 1 1 1 1 2 2 3 3 2 1 1 1 1 1 3 2 3 5 4 4 4 4 4 4 4 3 3 3 3
3 3 4 3 3 2 2 2 2 2 1 1 1 1 1 1 1 1 1 2 2 2 2 1 0 0 1 2 2 3 3 2 3 6 6 5 5 4 4 4 4 4 4
4 4 3 3 3 2 2 3 2 2 2 1 1 1 1 1 1 1 1 1 1 2 3 2 1 1 1 2 3 3 2 2 2 5 6 6 5 5 5 5 5 5 4
4 4 3 3 3 3 3 3 3 2 2 2 2 2 1 1 1 0 1 1 1 1 2 3 2 1 1 2 2 2 3 2 2 3 5 5 6 6 6 6 6 6 5
4 4 3 3 3 3 3 3 2 2 2 1 1 2 1 2 2 1 2 2 2 2 2 3 2 1 1 1 2 2 1 1 1 2 3 4 5 6 6 5 6 6 5
5 4 3 3 2 2 2 3 2 3 2 2 1 1 1 2 2 2 2 3 3 3 3 3 2 2 1 2 2 2 2 2 1 1 1 2 2 2 2 3 4 5 6
4 4 4 3 3 2 3 4 3 3 2 2 1 1 1 2 2 3 4 4 5 5 4 3 2 3 3 2 2 3 3 2 1 1 1 1 1 1 1 1 2 4 5
3 3 3 4 3 2 3 4 4 3 3 2 2 1 1 1 2 2 3 3 2 3 5 5 4 4 4 4 4 4 3 3 2 2 2 1 0 1 0 1 3 3 4
4 3 3 3 3 2 3 3 3 2 2 2 2 3 3 2 2 3 3 2 2 1 2 2 3 3 4 4 5 5 4 3 2 1 2 2 1 1 1 1 3 4 4
4 3 4 4 3 2 2 3 3 2 2 2 1 2 3 2 2 4 3 2 2 0 1 2 2 2 4 6 6 4 4 3 1 1 1 2 2 1 1 1 2 5 4
4 4 4 4 4 3 3 4 4 2 3 2 1 1 1 2 3 4 3 3 3 1 1 1 2 1 2 4 6 5 5 4 2 2 3 3 2 2 1 2 2 2 3
Wind_Direction
160 169 180 183 188 189 189 192 207 223 218 218 208 174 159 160 165 170 181 185 184 183 183 185 187 187 188 187 185 185 188 190 189 189 192 192 190 191 191 189 188 188 186
164 168 177 188 193 197 191 185 192 201 205 190 184 177 169 171 171 176 179 188 190 190 191 192 192 193 194 194 194 194 196 199 198 197 197 198 198 200 200 200 200 199 197
167 168 173 185 196 194 184 177 182 170 177 167 173 187 183 182 172 179 178 185 195 200 199 198 198 197 199 200 202 202 204 205 205 204 204 205 206 207 207 207 207 206 203
173 168 173 190 192 177 166 166 161 139 146 179 206 229 204 187 179 183 183 190 195 205 207 203 202 203 204 205 205 208 209 209 209 209 210 212 213 213 212 212 212 210 209
174 166 177 190 175 164 177 183 157 155 166 208 234 238 238 206 197 192 190 196 196 202 203 209 209 209 212 213 214 214 213 214 215 215 216 217 218 216 215 214 214 213 213
175 164 174 186 173 162 182 181 172 179 175 186 227 298 290 248 216 200 197 193 192 197 195 204 212 217 217 217 219 221 220 220 220 220 220 221 219 217 216 216 217 218 218
176 164 178 178 173 178 196 190 172 180 199 159 97 5 344 322 265 224 197 186 193 198 194 202 210 211 217 219 224 226 223 222 221 220 221 221 220 217 216 218 220 221 222
179 178 178 184 185 184 194 192 173 167 208 164 143 116 341 341 340 275 210 194 194 194 201 207 207 210 215 212 225 228 227 226 226 223 223 223 222 219 217 217 219 221 221
188 186 183 183 187 180 190 200 183 175 196 217 170 158 169 225 285 320 318 214 186 188 206 203 201 207 208 209 229 234 228 230 230 228 225 222 219 217 217 217 218 218 220
192 190 184 186 188 186 193 207 194 184 173 203 220 203 185 171 173 268 320 321 255 221 228 212 210 213 209 214 215 217 226 232 236 236 231 226 221 217 215 215 218 219 219
196 189 184 182 184 191 197 200 193 190 183 190 199 198 193 181 170 171 241 274 314 273 241 210 202 214 208 211 220 215 212 226 237 235 234 230 224 222 220 220 224 225 223
211 205 186 180 186 195 200 200 195 193 194 197 204 193 180 185 190 178 205 230 243 265 264 221 197 204 198 199 203 189 190 194 222 230 234 229 226 223 223 224 226 223 218
206 218 203 189 192 203 202 194 190 201 196 200 208 210 202 209 185 175 180 211 222 248 256 304 253 192 167 165 184 150 147 150 183 203 218 221 220 217 216 217 215 210 208
207 204 198 197 198 197 196 189 194 211 206 207 216 210 208 218 194 180 174 173 192 245 249 251 319 218 124 122 119 119 128 138 143 156 164 161 176 188 185 187 187 189 188
207 196 191 195 191 186 195 189 194 207 195 204 213 213 218 226 206 196 181 173 171 192 229 228 230 308 112 115 132 118 113 111 105 112 119 120 128 141 138 139 139 136 151
210 190 189 189 191 193 193 182 184 190 181 213 204 198 217 223 213 190 185 183 179 172 193 215 204 212 150 112 109 97 96 101 96 92 90 100 109 111 111 109 112 122 137
197 193 187 186 188 188 181 165 174 156 170 214 221 183 233 223 193 190 165 163 168 157 170 207 184 145 108 112 88 80 77 73 81 92 93 94 98 103 106 106 105 106 107
190 190 183 183 189 173 159 154 166 153 163 195 226 184 237 217 185 162 157 168 166 158 154 170 162 137 110 128 118 105 89 82 80 92 97 96 94 95 101 102 99 97 99
186 184 175 176 180 171 159 159 163 165 180 193 192 185 199 159 186 195 155 151 147 139 132 148 158 130 106 124 110 96 93 73 86 100 98 95 94 93 94 98 100 100 99
177 179 171 166 166 155 150 157 158 164 170 173 174 171 174 174 188 183 153 141 133 123 122 133 139 126 113 120 123 131 114 74 82 86 82 86 92 91 91 98 104 104 106
169 166 156 154 152 147 157 162 173 173 173 168 153 159 168 151 152 156 155 151 141 138 139 141 147 140 147 156 172 164 146 118 59 63 73 61 66 58 70 94 111 117 113
161 155 160 160 160 169 165 160 162 170 176 163 145 126 122 103 115 119 124 132 147 156 165 163 170 173 186 181 162 159 148 136 175 223 124 84 79 71 44 67 105 122 124
157 155 163 159 167 180 170 163 164 166 165 163 158 159 147 116 121 122 117 110 113 140 161 168 175 187 183 185 169 165 169 165 179 178 140 151 118 146 227 154 151 149 145
162 163 168 167 162 176 172 163 153 151 144 145 153 165 161 158 149 142 127 110 101 98 157 166 179 190 184 179 177 172 165 138 97 121 134 153 189 201 210 208 190 181 173
159 155 155 153 147 155 167 164 151 134 126 113 103 126 155 168 173 148 139 138 126 81 74 104 135 156 160 158 155 137 138 137 156 211 172 150 171 179 228 243 215 200 202
159 155 152 154 155 161 169 163 154 131 132 131 82 80 144 170 167 152 151 154 163 195 128 86 70 78 132 151 158 164 165 160 154 199 196 165 165 149 211 249 221 212 219